Weather History for Laredo, TX

Change the Weather History Date:

Saturday, March 16, 2013

  Actual Average Record
Temperature  
Mean Temperature 75 °F 68 °F  
Max Temperature 89 °F 80 °F 102 °F (1908)
Min Temperature 61 °F 57 °F 25 °F (1909)
Degree Days  
Heating Degree Days 0 2  
Month to date heating degree days 22 47  
Since 1 July heating degree days 498 891  
Cooling Degree Days 10 5  
Month to date cooling degree days 71 66  
Year to date cooling degree days 225 151  
Growing Degree Days 24 (Base 50)    
Moisture  
Dew Point 54 °F    
Average Humidity 53    
Maximum Humidity 81    
Minimum Humidity 26    
Precipitation  
Precipitation 0.00 in 0.04 in 1.16 in (1994)
Month to date precipitation 0.00 0.58  
Year to date precipitation 0.75 2.42  
Sea Level Pressure  
Sea Level Pressure 29.84 in    
Wind  
Wind Speed 14 mph (SSE)    
Max Wind Speed 23 mph    
Max Gust Speed 26 mph    
Visibility 10 miles    
Events      
T = Trace of Precipitation, MM = Missing Value Source: NWS Daily Summary

Daily Weather History Graph

Daily Weather History Graph

Search for Another Location

Airport:

Trip Planner

Search our weather history database for the weather conditions in past years. The results will help you decide how hot, cold, wet, or windy it might be!

Date:

Astronomy

Mar. 16, 2013 Rise Set
Actual Time 7:45 AM CDT 7:47 PM CDT
Civil Twilight 7:22 AM CDT 8:10 PM CDT
Nautical Twilight 6:55 AM CDT 8:37 PM CDT
Astronomical Twilight 6:28 AM CDT 9:04 PM CDT
Moon 10:43 AM CDT (3/16) No Moon Set
Length of Visible Light 12h 47m
Length of Day
12h 01m
Waxing Crescent, 23% of the Moon is Illuminated
Mar 16
Waxing Crescent
Mar 19
First Quarter
Mar 27
Full
Apr 2
Last Quarter
Apr 10
New

Hourly Weather History & Observations

Time (CDT) Temp. Heat Index Dew Point Humidity Pressure Visibility Wind Dir Wind Speed Gust Speed Precip Events Conditions
12:56 AM 66.9 °F - 50.9 °F 56% 29.99 in 10.0 mi SSE 16.1 mph 23.0 mph N/A   Clear
1:56 AM 65.8 °F - 52.9 °F 63% 29.96 in 10.0 mi SSE 13.8 mph - N/A   Clear
2:56 AM 64.9 °F - 52.9 °F 65% 29.94 in 10.0 mi South 13.8 mph - N/A   Clear
3:56 AM 63.9 °F - 54.0 °F 70% 29.92 in 10.0 mi SSE 12.7 mph - N/A   Clear
4:56 AM 63.0 °F - 54.0 °F 72% 29.90 in 10.0 mi SSE 13.8 mph - N/A   Clear
5:56 AM 63.0 °F - 54.0 °F 72% 29.90 in 10.0 mi SSE 11.5 mph - N/A   Clear
6:56 AM 61.9 °F - 54.9 °F 78% 29.89 in 10.0 mi SSE 11.5 mph - N/A   Clear
7:56 AM 61.0 °F - 54.9 °F 80% 29.89 in 10.0 mi SSE 10.4 mph - N/A   Clear
8:56 AM 63.9 °F - 54.9 °F 72% 29.90 in 10.0 mi SSE 11.5 mph - N/A   Clear
9:56 AM 68.9 °F - 54.9 °F 61% 29.91 in 10.0 mi SSE 16.1 mph - N/A   Clear
10:56 AM 73.9 °F - 54.9 °F 51% 29.90 in 10.0 mi South 15.0 mph - N/A   Clear
11:56 AM 77.0 °F - 54.0 °F 45% 29.89 in 10.0 mi SSE 13.8 mph - N/A   Clear
12:56 PM 81.0 °F 80.5 °F 54.0 °F 39% 29.87 in 10.0 mi South 13.8 mph - N/A   Clear
1:56 PM 84.9 °F - 52.0 °F 32% 29.82 in 10.0 mi SE 11.5 mph - N/A   Clear
2:56 PM 86.0 °F - 50.9 °F 30% 29.78 in 10.0 mi South 10.4 mph - N/A   Clear
3:56 PM 88.9 °F - 50.0 °F 26% 29.75 in 10.0 mi SSE 10.4 mph - N/A   Clear
4:56 PM 88.0 °F - 48.9 °F 26% 29.72 in 10.0 mi SE 10.4 mph - N/A   Clear
5:56 PM 88.0 °F - 48.9 °F 26% 29.71 in 10.0 mi South 15.0 mph 21.9 mph N/A   Clear
6:56 PM 86.9 °F - 48.9 °F 27% 29.71 in 10.0 mi SSE 11.5 mph - N/A   Clear
7:56 PM 81.9 °F - 52.9 °F 37% 29.73 in 10.0 mi SSE 20.7 mph 27.6 mph N/A   Clear
8:56 PM 77.9 °F - 54.0 °F 43% 29.75 in 10.0 mi SE 15.0 mph - N/A   Clear
9:56 PM 74.8 °F - 59.9 °F 60% 29.77 in 10.0 mi SE 19.6 mph 26.5 mph N/A   Clear
10:56 PM 72.9 °F - 59.9 °F 64% 29.78 in 10.0 mi SSE 21.9 mph - N/A   Clear
11:56 PM 70.9 °F - 59.9 °F 68% 29.78 in 10.0 mi SSE 15.0 mph - N/A   Clear